Hourly Data Report for May 31, 2012

All times are specified in Local Standard Time (LST). Add 1 hour to adjust for Daylight Saving Time where and when it is observed.

SAULT STE MARIE A
ONTARIO

46°29'06.000" N
84°30'35.000" W
192.00 m
6057591
71260
YAM

Related Data

No related data is available for this station

Download Data

Hourly Data (May 2012)
Hourly Data Report for May 31, 2012
Temp Definition
°C
Dew Point Temp Definition
°C
Rel Hum Definition
%
Wind Dir Definition
10's deg

Wind Spd Definition
km/h
Visibility Definition
km
Stn Press Definition
kPa
Hmdx Definition


Wind Chill Definition


Weather Definition


TIME
00:00 4.6 3.4 92 31 14 10.0 99.29     LegendNANA
01:00 4.6 3.7 94 29 13 10.0 99.27     Mainly Clear
02:00 4.1 3.5 96 31 16 10.0 99.29     LegendNANA
03:00 0.1 0.1 100   0 10.0 99.37     LegendNANA
04:00 1.5 1.5 100   0 10.0 99.40     Fog
05:00 0.6 0.6 100   0 10.0 99.45     LegendNANA
06:00 4.8 4.7 99 32 9 10.0 99.48     LegendNANA
07:00 7.1 5.4 89 30 18 10.0 99.52     Mainly Clear
08:00 7.6 4.9 83 29 19 10.0 99.56     LegendNANA
09:00 8.7 6.0 83 29 18 10.0 99.56     LegendNANA
10:00 9.8 6.0 77 27 20 10.0 99.57     Mostly Cloudy
11:00 10.8 6.4 74 27 26 10.0 99.53     LegendNANA
12:00 11.0 5.8 70 27 31 10.0 99.54     LegendNANA
13:00 11.6 5.5 66 29 24 10.0 99.50     Mostly Cloudy
14:00 13.5 5.2 57 28 18 10.0 99.45     LegendNANA
15:00 14.8 2.8 44 30 21 10.0 99.41     LegendNANA
16:00 14.6 1.6 41 32 22 10.0 99.41     Mostly Cloudy
17:00 14.6 1.2 40 33 17 10.0 99.35     LegendNANA
18:00 12.4 4.4 58 29 18 10.0 99.34     LegendNANA
19:00 10.0 6.0 76 29 16 10.0 99.37     Mostly Cloudy
20:00 8.9 5.8 81 29 14 10.0 99.37     LegendNANA
21:00 7.7 5.7 87 29 8 10.0 99.33     LegendNANA
22:00 5.7 2.5 80 33 5 10.0 99.35     Mainly Clear
23:00 3.0 2.3 95 28 5 10.0 99.39     LegendNANA

Notes on Data Quality.

Legend

  • E = Estimated
  • M = Missing
  • NA = Not Available
Date modified: